Showing default

SHIYAN 27A, 63599

Orbit data source: Space-Track

SHIYAN 27A, 63599 is a payload satellite owned by CAST (CN) in SSO that was launched on Fri, 18 Apr 2025 UTC via a CHANG ZHENG 6A launch vehicle from the Taiyaun Space Center, China (TSC). Payload-class satellites include a variety of spacecraft equipped with specific instruments for various scientific and technological missions. These include communications satellites like Starlink; space stations such as the ISS; scientific satellites like the Hubble; Earth observation satellites from companies like Planet Labs, Umbra, and HawkEye 360; GPS; miniature CubeSats for education and research; and military/defense satellites.

Loading next visibility...
Identifier
63599, 2025-078A
Orbit
SSO
Country
Flag of CNCN / PRC
Related business
Manufacturer
CAST
Mission
Operational Defense Radar Imaging
Bus & Motor
SW27, Unknown motor
Mass
300 kg wet, ~300 kg dry
Launch date (UTC)
2025-04-18 (7 months ago)
Launch vehicle
CHANG ZHENG 6A
Launch site
Taiyaun Space Center, China (TSC)
Object type
Payload
Rocket body
Debris
Shape & HBR
Box + 1 Pan, 2.4 m
Radar Cross Section
13.200 m², Large (>1 m²)

Expand to show TLE details & history
Last TLE update: 5 hours ago

TLE from 5 hours ago
0 SHIYAN 27A
1 63599U 25078A   25308.18779891  .00000047  00000-0  12802-3 0  9999
2 63599  99.6937 313.8014 0000694  99.7590 260.3626 13.57221236 27012
Epoch: 2025-11-04T04:30Z
TLE epoch observation values (Epoch: 2025-11-04T04:30:25.825Z)
Latitude
-0.00011°
Longitude
-157.4846°
Altitude
1,048.69 km
Speed
7.328 km/s
True Right ascension
20h 55m 12s
True Declination
0° 00' 00"
Sunlit
Object was in daylight at epoch
Visualization orbit readout
Latitude
Unknown
Longitude
Unknown
Altitude
Unknown
Speed
Unknown
Apparent Right ascension
Unknown
Apparent Declination
Unknown
Sunlit
N/A
Visualization observer readout
Local Sidereal Time
05:21:24
Azimuth
Unknown
Elevation
Unknown
Doppler factor
Unknown
Orbital elements
Apogee altitude
1,043.614 km
Perigee altitude
1,042.584 km
Semi-major axis
7,421.236 km
Eccentricity
0.00007
Inclination
99.6937°
RAAN
313.8014°
Arg. of periapsis
99.759°
True anomaly
260.35476°
Mean anomaly
260.3626°
Eccentric anomaly
260.35868°
Mean motion
3.39491 °/min
Orbital period
106.04 mins
BSTAR
0.00012802
Loading maneuver chart data...
Computing Atmospheric mass density...
Loading historical data...
Loading historical data...
Loading historical data...
Loading historical data...
Loading historical data...
Loading historical data...
Loading historical data...

Documentation

Showing up to 5 results
|